EZY596Z EGPF-EGAC

Flight info

Callsign EZY596Z
Flight time 0h 22m
Altitude 16000
Route NORBO L186 TRN P600 BLACA DCT MAGEE
Aircraft A319/M-SDE3FGHIRWY/LB1

Departure

Time 2026-05-06 18:25
Airport Glasgow Airport (EGPF)

Arrival

Time 2026-05-06 18:47
Airport George Best Belfast City Airport (EGAC)
Time Latitude Longitude Altitude Speed Heading
2026-05-06 17:57 55.86631 -4.43013 30 ft 0 kts 254°
2026-05-06 18:16 55.86636 -4.42987 31 ft 3 kts 254°
2026-05-06 18:17 55.86640 -4.42955 31 ft 3 kts 287°
2026-05-06 18:17 55.86635 -4.42924 31 ft 2 kts 292°
2026-05-06 18:17 55.86625 -4.42905 29 ft 0 kts 342°
2026-05-06 18:19 55.86639 -4.42913 31 ft 5 kts 342°
2026-05-06 18:19 55.86690 -4.42942 31 ft 10 kts 343°
2026-05-06 18:20 55.86772 -4.42986 30 ft 13 kts 343°
2026-05-06 18:20 55.86863 -4.42970 31 ft 14 kts 25°
2026-05-06 18:20 55.86955 -4.42892 31 ft 15 kts 26°
2026-05-06 18:20 55.87055 -4.42815 31 ft 16 kts 20°
2026-05-06 18:21 55.87164 -4.42743 31 ft 17 kts 21°
2026-05-06 18:21 55.87280 -4.42665 31 ft 18 kts 20°
2026-05-06 18:21 55.87398 -4.42575 30 ft 19 kts 40°
2026-05-06 18:21 55.87478 -4.42432 31 ft 13 kts 44°
2026-05-06 18:22 55.87542 -4.42308 31 ft 14 kts 47°
2026-05-06 18:22 55.87596 -4.42207 31 ft 8 kts 45°
2026-05-06 18:22 55.87639 -4.42149 31 ft 4 kts
2026-05-06 18:22 55.87640 -4.42149 31 ft 0 kts
2026-05-06 18:23 55.87641 -4.42149 31 ft 1 kts
2026-05-06 18:23 55.87671 -4.42150 31 ft 7 kts 356°
2026-05-06 18:23 55.87734 -4.42201 30 ft 13 kts 317°
2026-05-06 18:24 55.87757 -4.42278 31 ft 5 kts 229°
2026-05-06 18:24 55.87746 -4.42300 31 ft 8 kts 226°
2026-05-06 18:24 55.87522 -4.42716 32 ft 89 kts 226°
2026-05-06 18:24 55.86923 -4.43834 123 ft 148 kts 225°
2026-05-06 18:25 55.86230 -4.45153 894 ft 145 kts 225°
2026-05-06 18:25 55.85485 -4.46528 1429 ft 168 kts 223°
2026-05-06 18:25 55.84603 -4.48093 1960 ft 191 kts 223°
2026-05-06 18:25 55.83590 -4.49871 2518 ft 217 kts 223°
2026-05-06 18:26 55.82457 -4.51861 3242 ft 240 kts 222°
2026-05-06 18:26 55.81248 -4.53988 4314 ft 248 kts 223°
2026-05-06 18:26 55.80008 -4.56179 5461 ft 254 kts 223°
2026-05-06 18:26 55.78745 -4.58413 6646 ft 258 kts 224°
2026-05-06 18:27 55.77465 -4.60673 7749 ft 262 kts 224°
2026-05-06 18:27 55.76152 -4.62966 8859 ft 267 kts 222°
2026-05-06 18:27 55.74566 -4.64717 9947 ft 273 kts 205°
2026-05-06 18:27 55.72778 -4.66116 10643 ft 292 kts 205°
2026-05-06 18:28 55.70858 -4.67596 11334 ft 306 kts 205°
2026-05-06 18:28 55.68882 -4.69107 12268 ft 313 kts 205°
2026-05-06 18:28 55.66865 -4.70647 13212 ft 319 kts 205°
2026-05-06 18:28 55.64814 -4.72213 14131 ft 324 kts 206°
2026-05-06 18:29 55.62731 -4.73802 14974 ft 328 kts 206°
2026-05-06 18:29 55.60609 -4.75393 15688 ft 335 kts 203°
2026-05-06 18:29 55.58326 -4.76337 15929 ft 341 kts 188°
2026-05-06 18:29 55.55976 -4.76546 16004 ft 331 kts 185°
2026-05-06 18:30 55.53721 -4.76698 16008 ft 317 kts 186°
2026-05-06 18:30 55.51543 -4.76845 16010 ft 311 kts 186°
2026-05-06 18:30 55.49385 -4.76999 16010 ft 310 kts 186°
2026-05-06 18:30 55.47230 -4.77159 16010 ft 310 kts 186°
2026-05-06 18:31 55.45084 -4.77323 16012 ft 310 kts 186°
2026-05-06 18:31 55.42928 -4.77486 15997 ft 310 kts 186°
2026-05-06 18:31 55.40775 -4.77651 16008 ft 310 kts 186°
2026-05-06 18:31 55.38618 -4.77816 16010 ft 310 kts 186°
2026-05-06 18:32 55.36462 -4.77981 16012 ft 310 kts 186°
2026-05-06 18:32 55.34305 -4.78148 16015 ft 310 kts 186°
2026-05-06 18:32 55.32168 -4.78545 16016 ft 306 kts 198°
2026-05-06 18:32 55.30280 -4.80050 16018 ft 300 kts 218°
2026-05-06 18:33 55.28685 -4.82450 16023 ft 298 kts 225°
2026-05-06 18:33 55.27107 -4.84986 16013 ft 318 kts 225°
2026-05-06 18:33 55.25481 -4.87614 15701 ft 318 kts 225°
2026-05-06 18:33 55.23854 -4.90237 15235 ft 318 kts 225°
2026-05-06 18:34 55.22231 -4.92847 14810 ft 316 kts 225°
2026-05-06 18:34 55.20613 -4.95439 14371 ft 313 kts 224°
2026-05-06 18:34 55.19014 -4.97996 13865 ft 310 kts 224°
2026-05-06 18:34 55.17439 -5.00512 13420 ft 303 kts 224°
2026-05-06 18:35 55.15903 -5.02957 13049 ft 294 kts 224°
2026-05-06 18:35 55.14401 -5.05349 12711 ft 291 kts 224°
2026-05-06 18:35 55.12930 -5.07688 12361 ft 288 kts 224°
2026-05-06 18:35 55.11438 -5.10060 12005 ft 285 kts 224°
2026-05-06 18:36 55.09981 -5.12378 11653 ft 282 kts 224°
2026-05-06 18:36 55.08532 -5.14679 11300 ft 280 kts 224°
2026-05-06 18:36 55.07098 -5.16954 10947 ft 277 kts 224°
2026-05-06 18:36 55.05676 -5.19212 10588 ft 275 kts 224°
2026-05-06 18:37 55.04281 -5.21423 10242 ft 273 kts 224°
2026-05-06 18:37 55.02877 -5.23642 9886 ft 271 kts 224°
2026-05-06 18:37 55.01483 -5.25842 9482 ft 269 kts 224°
2026-05-06 18:37 55.00101 -5.28019 9115 ft 265 kts 223°
2026-05-06 18:38 54.98739 -5.30164 8748 ft 263 kts 223°
2026-05-06 18:38 54.97385 -5.32290 8376 ft 262 kts 223°
2026-05-06 18:38 54.96037 -5.34409 8007 ft 260 kts 223°
2026-05-06 18:38 54.94693 -5.36522 7622 ft 259 kts 223°
2026-05-06 18:39 54.93362 -5.38614 7240 ft 257 kts 223°
2026-05-06 18:39 54.92060 -5.40723 6927 ft 254 kts 225°
2026-05-06 18:39 54.90831 -5.42915 6846 ft 254 kts 226°
2026-05-06 18:40 54.88422 -5.47420 6729 ft 255 kts 227°
2026-05-06 18:40 54.87218 -5.49683 6546 ft 254 kts 227°
2026-05-06 18:40 54.86018 -5.51919 6217 ft 252 kts 227°
2026-05-06 18:40 54.84826 -5.54120 5862 ft 248 kts 227°
2026-05-06 18:41 54.83670 -5.56248 5516 ft 235 kts 227°
2026-05-06 18:41 54.82580 -5.58247 5203 ft 222 kts 227°
2026-05-06 18:41 54.81549 -5.60138 4901 ft 210 kts 227°
2026-05-06 18:41 54.80558 -5.61949 4610 ft 205 kts 226°
2026-05-06 18:42 54.79581 -5.63732 4319 ft 203 kts 226°
2026-05-06 18:42 54.78617 -5.65491 4036 ft 200 kts 225°
2026-05-06 18:42 54.77670 -5.67224 3757 ft 197 kts 225°
2026-05-06 18:42 54.76725 -5.68938 3493 ft 195 kts 223°
2026-05-06 18:43 54.75701 -5.70456 3273 ft 193 kts 216°
2026-05-06 18:43 54.74622 -5.71833 3012 ft 193 kts 214°
2026-05-06 18:43 54.73524 -5.73175 2746 ft 193 kts 213°
2026-05-06 18:43 54.72441 -5.74485 2482 ft 186 kts 213°
2026-05-06 18:44 54.71400 -5.75739 2260 ft 177 kts 212°
2026-05-06 18:44 54.70400 -5.76943 2004 ft 173 kts 212°
2026-05-06 18:44 54.69422 -5.78119 1765 ft 167 kts 211°
2026-05-06 18:44 54.68498 -5.79231 1525 ft 156 kts 211°
2026-05-06 18:45 54.67643 -5.80260 1309 ft 144 kts 210°
2026-05-06 18:45 54.66844 -5.81219 1105 ft 135 kts 209°
2026-05-06 18:45 54.66090 -5.82117 902 ft 130 kts 210°
2026-05-06 18:45 54.65603 -5.82700 801 ft 128 kts 210°
2026-05-06 18:46 54.64642 -5.83852 573 ft 124 kts 210°
2026-05-06 18:46 54.63933 -5.84704 412 ft 123 kts 210°
2026-05-06 18:46 54.63231 -5.85545 241 ft 123 kts 212°
2026-05-06 18:46 54.62516 -5.86406 69 ft 126 kts 211°
2026-05-06 18:47 54.61836 -5.87218 19 ft 105 kts 215°
2026-05-06 18:47 54.61482 -5.87644 12 ft 27 kts 214°
2026-05-06 18:47 54.61351 -5.87797 14 ft 18 kts 213°
2026-05-06 18:47 54.61290 -5.87738 15 ft 11 kts 124°
2026-05-06 18:48 54.61253 -5.87626 18 ft 10 kts 91°
2026-05-06 18:48 54.61297 -5.87548 19 ft 9 kts 35°
2026-05-06 18:48 54.61344 -5.87492 20 ft 8 kts 34°
2026-05-06 18:48 54.61391 -5.87425 21 ft 12 kts 49°
2026-05-06 18:49 54.61443 -5.87330 21 ft 6 kts 37°
2026-05-06 18:49 54.61457 -5.87279 21 ft 5 kts 121°
2026-05-06 18:49 54.61441 -5.87240 21 ft 4 kts 124°
2026-05-06 18:49 54.61432 -5.87217 21 ft 0 kts 124°
2026-05-06 18:50 54.61432 -5.87216 21 ft 0 kts 124°